Van, Turkey

7:00 AM +03 on March 29, 2017 (GMT +0300)
Van

Weather History for LTCI - March, 2013

Change the Weather History Date:

Friday, March 15, 2013

  Actual Average Record
Temperature  
Mean Temperature 42 °F -  
Max Temperature 55 °F 49 °F 55 °F (2013)
Min Temperature 33 °F 32 °F 19 °F (2011)
Degree Days  
Heating Degree Days 22    
Moisture  
Dew Point 36 °F    
Average Humidity 73    
Maximum Humidity 93    
Minimum Humidity 31    
Precipitation  
Precipitation 0.00 in 0.06 in - ()
Sea Level Pressure  
Sea Level Pressure 30.21 in    
Wind  
Wind Speed 4 mph ()    
Max Wind Speed 20 mph    
Max Gust Speed -    
Visibility 5.2 miles    
Events      
Averages and records for this station are not official NWS values.
T = Trace of Precipitation, MM = Missing Value Source: Averaged Metar Reports

Daily Weather History Graph

Daily Weather History Graph

Search for Another Location

Airport or City:

Trip Planner

Search our weather history database for the weather conditions in past years. The results will help you decide how hot, cold, wet, or windy it might be!

Date:

Astronomy

Mar. 15, 2013 Rise Set
Actual Time 5:18 AM EET 5:13 PM EET
Civil Twilight 4:51 AM EET 5:40 PM EET
Nautical Twilight 4:21 AM EET 6:10 PM EET
Astronomical Twilight 3:49 AM EET 6:42 PM EET
Moon 6:57 AM EET (3/15) 9:03 PM EET (3/15)
Length of Visible Light 12h 48m
Length of Day
11h 55m
Waxing Crescent, 13% of the Moon is Illuminated
Mar 15
Waxing Crescent
Mar 19
First Quarter
Mar 27
Full
Apr 3
Last Quarter
Apr 10
New

Hourly Weather History & Observations

Time (EET) Temp. Windchill Dew Point Humidity Pressure Visibility Wind Dir Wind Speed Gust Speed Precip Events Conditions
12:50 AM 35.6 °F - 33.8 °F 93% 30.18 in 3.7 mi Calm Calm - N/A   Scattered Clouds
1:50 AM 35.6 °F 32.8 °F 33.8 °F 93% 30.15 in 3.7 mi East 3.5 mph - N/A   Scattered Clouds
2:00 AM 36 °F - 33 °F 83%  in 4 mi East 3.5 mph - -   Mist
2:50 AM 35.6 °F - 30.2 °F 81% 30.15 in 3.7 mi Variable 1.2 mph - N/A   Scattered Clouds
3:50 AM 35.6 °F - 33.8 °F 93% 30.18 in 3.7 mi Calm Calm - N/A   Scattered Clouds
4:50 AM 35.6 °F - 33.8 °F 93% 30.18 in 4.3 mi ESE 2.3 mph - N/A   Scattered Clouds
5:50 AM 35.6 °F 32.8 °F 33.8 °F 93% 30.24 in 4.3 mi SE 3.5 mph - N/A   Scattered Clouds
6:50 AM 44.6 °F - 35.6 °F 71% 30.24 in 5.0 mi Variable 2.3 mph - N/A   Partly Cloudy
7:50 AM 48.2 °F - 33.8 °F 58% 30.24 in 5.0 mi NW 3.5 mph - N/A   Partly Cloudy
8:00 AM 49 °F - 33 °F 41%  in 5 mi NW 3.5 mph - -   Haze
8:50 AM 48.2 °F - 35.6 °F 62% 30.24 in 5.0 mi NW 6.9 mph - N/A   Partly Cloudy
9:50 AM 50.0 °F - 35.6 °F 58% 30.24 in 5.0 mi WSW 4.6 mph - N/A   Partly Cloudy
10:50 AM 50.0 °F - 41.0 °F 71% 30.24 in 6.2 mi West 10.4 mph - N/A   Partly Cloudy
11:50 AM 48.2 °F - 39.2 °F 71% 30.24 in 6.2 mi SW 9.2 mph - N/A   Mostly Cloudy
12:50 PM 50.0 °F - 39.2 °F 66% 30.24 in 6.2 mi SW 11.5 mph - N/A   Scattered Clouds
1:50 PM 50.0 °F - 39.2 °F 66% 30.24 in 6.2 mi WSW 10.4 mph - N/A   Scattered Clouds
2:00 PM 50 °F - 39 °F 56%  in 7 mi WSW 10.4 mph - -   Scattered Clouds
2:50 PM 50.0 °F - 39.2 °F 66% 30.24 in 6.2 mi WSW 10.4 mph - N/A   Scattered Clouds
3:50 PM 50.0 °F - 37.4 °F 62% 30.21 in 6.2 mi West 4.6 mph - N/A   Scattered Clouds
4:50 PM 46.4 °F 45.2 °F 39.2 °F 76% 30.21 in 6.2 mi WNW 3.5 mph - N/A   Scattered Clouds
5:50 PM 44.6 °F - 37.4 °F 76% 30.21 in 6.2 mi East 2.3 mph - N/A   Scattered Clouds
6:50 PM 42.8 °F - 37.4 °F 81% 30.24 in 6.2 mi Variable 1.2 mph - N/A   Scattered Clouds
7:50 PM 42.8 °F 40.1 °F 37.4 °F 81% 30.21 in 4.3 mi North 4.6 mph - N/A   Mostly Cloudy
8:00 PM 43 °F - 37 °F 72%  in 4 mi North 4.6 mph - -   Mist
8:50 PM 44.6 °F 41.4 °F 39.2 °F 81% 30.21 in 4.3 mi WSW 5.8 mph - N/A   Mostly Cloudy
9:50 PM 42.8 °F 39.3 °F 39.2 °F 87% 30.18 in 6.2 mi NNW 5.8 mph - N/A   Mostly Cloudy
10:50 PM 44.6 °F 40.7 °F 37.4 °F 76% 30.15 in 6.2 mi WNW 6.9 mph - N/A   Mostly Cloudy
11:50 PM 55.4 °F - 24.8 °F 31% 30.09 in 6.2 mi SE 19.6 mph - N/A   Mostly Cloudy